Location: Cieszkowy
(50.3290°N, 20.5336°E)
Time: 13:57:15
(UTC+00:00)

Cosmos 1821 Rocket - Pass Details

Date: 15 June 2024
Orbit: 945 x 1003 km, 82.9° (Epoch: 14 July)

Event Time Altitude Azimuth Distance (km) Brightness Sun altitude
Exits shadow 01:01:26 10° 192° (SSW) 2,656 5.7 -9.8°
Maximum altitude 01:07:30 80° 281° (W) 972 4.0 -9.3°
Drops below altitude 10° 01:13:42 10° 8° (N) 2,705 7.4 -8.7°
Sets 01:16:14 0° 10° (N) 3,663 8.3 -8.5°
